weather.gov     
National Weather Service

Terminal Aerodrome Forecast
NWS Homepage
This page is being discontinued on March 12, 2014.
The same data is available at this site. Please update your bookmarks.
Thank you, and we apologize for the inconvenience.
Please send an email to SR-SRH.Webmaster@noaa.gov with any concerns.


Current Version
Previous Version:    01  02  03  04  05  06  07  08  09  10  11  12  13  14  15  16  17  18  19  20  21  22  23  
[Printable]
748
FTUS43 KGLD 291120
TAFGLD
TAF
KGLD 291120Z 2912/3012 34012KT P6SM BKN100
     FM291600 35015G23KT P6SM SCT100 SCT280
     FM292100 35010KT P6SM SCT280
     FM292300 02007KT P6SM SCT280
     FM300200 VRB05KT P6SM SCT250
     FM300700 17007KT P6SM SCT230=




748
FTUS43 KGLD 291120
TAFGLD
TAF
KGLD 291120Z 2912/3012 34012KT P6SM BKN100
     FM291600 35015G23KT P6SM SCT100 SCT280
     FM292100 35010KT P6SM SCT280
     FM292300 02007KT P6SM SCT280
     FM300200 VRB05KT P6SM SCT250
     FM300700 17007KT P6SM SCT230=


U.S. Dept. of Commerce
NOAA National Weather Service
1325 East West Highway
Silver Spring, MD 20910
E-mail: w-nws.webmaster@noaa.gov
Page last modified: May 16, 2007
NATIONAL WEATHER SERVICE: for Safety, for Work, for Fun - FOR LIFE